| time (UTC) | temp F | wind direction | speed knots | gust knots | rain 1hr in | rain 24hr in | rain mn in | humidity % | barometer mb |
| 20260506013336 | 55 | 180 | 2.6 | 7.8 | 0.00 | 0.29 | 0.00 | 81 | 1006.8 |
| 20260506012315 | 54 | 200 | 2.6 | 5.2 | 0.00 | 0.29 | 0.00 | 81 | 1006.8 |
| 20260506011247 | 54 | 187 | 0.0 | 4.3 | 0.00 | 0.29 | 0.00 | 80 | 1006.9 |
| 20260506010308 | 55 | 166 | 0.0 | 0.0 | 0.00 | 0.29 | 0.00 | 80 | 1007.0 |
| 20260506005250 | 55 | 166 | 0.0 | 0.0 | 0.00 | 0.29 | 0.00 | 80 | 1007.0 |
| 20260506003131 | 55 | 166 | 0.9 | 3.5 | 0.00 | 0.29 | 0.00 | 80 | 1007.2 |
| 20260506002120 | 55 | 165 | 0.0 | 2.6 | 0.00 | 0.29 | 0.00 | 79 | 1007.4 |
| 20260506001127 | 55 | 179 | 0.0 | 0.0 | 0.00 | 0.29 | 0.00 | 79 | 1007.3 |
| 20260506000147 | 55 | 179 | 0.9 | 3.5 | 0.00 | 0.29 | 0.00 | 79 | 1007.4 |
| 20260505235206 | 55 | 180 | 1.7 | 5.2 | 0.00 | 0.29 | 0.00 | 79 | 1007.4 |
| 20260505233125 | 55 | 174 | 0.9 | 3.5 | 0.00 | 0.29 | 0.00 | 78 | 1007.5 |
| 20260505232130 | 55 | 188 | 0.9 | 2.6 | 0.00 | 0.29 | 0.00 | 78 | 1007.5 |
| 20260505231118 | 56 | 188 | 0.9 | 3.5 | 0.00 | 0.29 | 0.00 | 78 | 1007.7 |
| 20260505222801 | 56 | 202 | 2.6 | 5.2 | 0.00 | 0.29 | 0.00 | 77 | 1007.6 |
| 20260505220602 | 57 | 164 | 2.6 | 5.2 | 0.00 | 0.29 | 0.00 | 76 | 1007.5 |
| 20260505215620 | 57 | 167 | 2.6 | 4.3 | 0.00 | 0.29 | 0.29 | 76 | 1007.5 |
| 20260505214555 | 57 | 161 | 2.6 | 4.3 | 0.00 | 0.29 | 0.29 | 76 | 1007.6 |
| 20260505213611 | 57 | 184 | 1.7 | 4.3 | 0.00 | 0.29 | 0.29 | 75 | 1007.5 |
| 20260505212545 | 57 | 176 | 0.9 | 4.3 | 0.00 | 0.29 | 0.29 | 75 | 1007.4 |
| 20260505211512 | 58 | 175 | 0.0 | 2.6 | 0.00 | 0.29 | 0.29 | 75 | 1007.6 |
| 20260505203114 | 57 | 158 | 0.0 | 3.5 | 0.00 | 0.29 | 0.29 | 72 | 1007.7 |
| 20260505202117 | 58 | 157 | 0.0 | 1.7 | 0.03 | 0.29 | 0.29 | 72 | 1007.7 |
| 20260505201104 | 58 | 157 | 0.0 | 3.5 | 0.03 | 0.29 | 0.29 | 72 | 1007.7 |
| 20260505200100 | 58 | 146 | 0.0 | 2.6 | 0.04 | 0.28 | 0.28 | 71 | 1007.7 |
| 20260505195035 | 58 | 144 | 0.0 | 1.7 | 0.07 | 0.27 | 0.27 | 71 | 1007.6 |
| 20260505194036 | 58 | 143 | 0.0 | 0.0 | 0.05 | 0.26 | 0.26 | 70 | 1007.6 |
| 20260505193002 | 59 | 143 | 0.9 | 7.8 | 0.17 | 0.25 | 0.25 | 70 | 1007.4 |
| 20260505191936 | 60 | 161 | 0.9 | 7.8 | 0.27 | 0.21 | 0.22 | 70 | 1007.5 |
| 20260505190913 | 61 | 162 | 0.0 | 3.5 | 0.10 | 0.10 | 0.10 | 69 | 1007.5 |
| 20260505185904 | 61 | 174 | 0.0 | 0.9 | 0.56 | 0.04 | 0.06 | 68 | 1007.4 |
| 20260505183726 | 62 | 219 | 0.0 | 0.0 | 0.00 | 0.03 | 0.03 | 67 | 1007.1 |
| 20260505182705 | 62 | 219 | 0.0 | 0.0 | 0.00 | 0.03 | 0.03 | 66 | 1007.0 |
| 20260505180449 | 62 | 219 | 0.0 | 0.0 | 0.00 | 0.03 | 0.03 | 65 | 1006.9 |
| 20260505175451 | 62 | 219 | 0.0 | 0.0 | 0.00 | 0.03 | 0.03 | 65 | 1006.9 |
| 20260505174504 | 62 | 219 | 0.0 | 0.0 | 0.00 | 0.03 | 0.03 | 65 | 1007.0 |
| 20260505172408 | 62 | 219 | 0.0 | 0.0 | 0.00 | 0.03 | 0.03 | 65 | 1007.0 |
| 20260505171357 | 62 | 219 | 0.0 | 0.0 | 0.00 | 0.03 | 0.03 | 65 | 1007.0 |
| 20260505170417 | 62 | 219 | 0.0 | 0.0 | 0.00 | 0.03 | 0.03 | 66 | 1007.0 |
| 20260505164254 | 63 | 219 | 0.0 | 0.0 | 0.00 | 0.03 | 0.03 | 67 | 1007.1 |
| 20260505163234 | 63 | 219 | 0.0 | 0.0 | 0.00 | 0.03 | 0.03 | 68 | 1007.2 |
| 20260505162214 | 63 | 219 | 0.0 | 0.0 | 0.00 | 0.03 | 0.03 | 68 | 1007.2 |
| 20260505161208 | 62 | 219 | 0.0 | 0.0 | 0.00 | 0.03 | 0.03 | 68 | 1007.2 |
| 20260505152939 | 62 | 219 | 0.0 | 0.0 | 0.00 | 0.03 | 0.03 | 69 | 1007.5 |
| 20260505151937 | 62 | 219 | 0.0 | 0.0 | 0.00 | 0.03 | 0.03 | 68 | 1007.5 |
| 20260505150917 | 62 | 219 | 0.0 | 0.0 | 0.00 | 0.03 | 0.03 | 68 | 1007.4 |
| 20260505124746 | 66 | 184 | 0.9 | 6.1 | 0.00 | 0.00 | 0.00 | 58 | 1008.3 |
| 20260505123807 | 66 | 235 | 1.7 | 6.1 | 0.00 | 0.00 | 0.00 | 56 | 1008.2 |
| 20260505122812 | 66 | 246 | 0.9 | 6.1 | 0.00 | 0.00 | 0.00 | 54 | 1008.1 |
| 20260505121829 | 67 | 186 | 1.7 | 6.1 | 0.00 | 0.00 | 0.00 | 53 | 1008.1 |
| 20260505120804 | 67 | 269 | 0.9 | 7.8 | 0.00 | 0.00 | 0.00 | 53 | 1008.1 |
| 20260505115803 | 67 | 215 | 2.6 | 7.8 | 0.00 | 0.00 | 0.00 | 53 | 1008.1 |
| 20260505113601 | 66 | 221 | 1.7 | 6.1 | 0.00 | 0.00 | 0.00 | 55 | 1008.2 |
| 20260505112558 | 66 | 201 | 0.9 | 3.5 | 0.00 | 0.00 | 0.00 | 55 | 1008.3 |
| 20260505102150 | 65 | 242 | 0.0 | 0.0 | 0.00 | 0.00 | 0.00 | 56 | 1008.5 |
| 20260505101158 | 65 | 242 | 0.0 | 2.6 | 0.00 | 0.00 | 0.00 | 56 | 1008.6 |
| 20260505100215 | 65 | 273 | 0.0 | 1.7 | 0.00 | 0.00 | 0.00 | 56 | 1008.7 |
| 20260505095143 | 65 | 172 | 0.0 | 0.0 | 0.00 | 0.00 | 0.00 | 57 | 1008.7 |
| 20260505094205 | 65 | 172 | 0.0 | 0.0 | 0.00 | 0.00 | 0.00 | 57 | 1008.8 |
| 20260505092020 | 63 | 227 | 0.0 | 0.0 | 0.00 | 0.00 | 0.00 | 60 | 1009.1 |
| 20260505090958 | 63 | 227 | 0.0 | 0.0 | 0.00 | 0.00 | 0.00 | 60 | 1009.1 |
| 20260505085938 | 62 | 227 | 0.0 | 0.0 | 0.00 | 0.00 | 0.00 | 61 | 1009.2 |
| 20260505084943 | 62 | 227 | 0.0 | 0.0 | 0.00 | 0.00 | 0.00 | 61 | 1009.3 |
| 20260505083933 | 62 | 227 | 0.0 | 0.0 | 0.00 | 0.00 | 0.00 | 61 | 1009.3 |
| 20260505081820 | 62 | 227 | 0.0 | 0.0 | 0.00 | 0.00 | 0.00 | 61 | 1009.5 |
| 20260505080753 | 62 | 227 | 0.0 | 0.0 | 0.00 | 0.00 | 0.00 | 61 | 1009.4 |
| 20260505075728 | 62 | 227 | 0.0 | 0.0 | 0.00 | 0.00 | 0.00 | 61 | 1009.5 |
| 20260505074737 | 61 | 227 | 0.0 | 0.0 | 0.00 | 0.00 | 0.00 | 61 | 1009.5 |
| 20260505073751 | 61 | 227 | 0.0 | 0.0 | 0.00 | 0.00 | 0.00 | 62 | 1009.5 |
| 20260505072719 | 61 | 227 | 0.0 | 0.0 | 0.00 | 0.00 | 0.00 | 62 | 1009.5 |
| 20260505071646 | 60 | 227 | 0.0 | 0.0 | 0.00 | 0.00 | 0.00 | 64 | 1009.6 |
| 20260505070646 | 60 | 227 | 0.0 | 0.0 | 0.00 | 0.00 | 0.00 | 65 | 1009.6 |
| 20260505065644 | 59 | 227 | 0.0 | 0.0 | 0.00 | 0.00 | 0.00 | 65 | 1009.7 |
| 20260505064636 | 59 | 227 | 0.0 | 0.0 | 0.00 | 0.00 | 0.00 | 66 | 1009.7 |
| 20260505062540 | 58 | 227 | 0.0 | 0.0 | 0.00 | 0.00 | 0.00 | 67 | 1009.8 |
| 20260505061545 | 57 | 227 | 0.0 | 0.0 | 0.00 | 0.00 | 0.00 | 67 | 1009.8 |
| 20260505055415 | 57 | 227 | 0.0 | 0.0 | 0.00 | 0.00 | 0.00 | 67 | 1009.9 |
| 20260505053256 | 56 | 227 | 0.0 | 0.0 | 0.00 | 0.00 | 0.00 | 67 | 1009.8 |
| 20260505051208 | 56 | 227 | 0.0 | 0.0 | 0.00 | 0.00 | 0.00 | 66 | 1009.7 |
| 20260505050140 | 56 | 227 | 0.0 | 0.0 | 0.00 | 0.00 | 0.00 | 66 | 1009.6 |
| 20260505040854 | 56 | 227 | 0.0 | 0.0 | 0.00 | 0.00 | 0.00 | 65 | 1009.7 |
| 20260505035907 | 56 | 227 | 0.0 | 0.0 | 0.00 | 0.00 | 0.00 | 64 | 1009.7 |
| 20260505034844 | 56 | 227 | 0.0 | 0.0 | 0.00 | 0.00 | 0.00 | 64 | 1009.7 |
| 20260505032727 | 57 | 227 | 0.0 | 0.0 | 0.00 | 0.00 | 0.00 | 63 | 1009.8 |
| 20260505031746 | 57 | 227 | 0.0 | 0.0 | 0.00 | 0.00 | 0.00 | 63 | 1009.9 |
| 20260505030743 | 57 | 227 | 0.0 | 0.0 | 0.00 | 0.00 | 0.00 | 63 | 1010.0 |
| 20260505025735 | 58 | 227 | 0.0 | 0.0 | 0.00 | 0.00 | 0.00 | 62 | 1010.2 |
| 20260505024706 | 58 | 227 | 0.0 | 0.0 | 0.00 | 0.00 | 0.00 | 62 | 1010.2 |
| 20260505023720 | 58 | 227 | 0.0 | 0.0 | 0.00 | 0.00 | 0.00 | 62 | 1010.3 |
| 20260505022714 | 58 | 227 | 0.0 | 0.0 | 0.00 | 0.00 | 0.00 | 62 | 1010.4 |
| 20260505021730 | 58 | 227 | 0.0 | 0.0 | 0.00 | 0.00 | 0.00 | 62 | 1010.6 |
| 20260505020710 | 58 | 227 | 0.0 | 0.0 | 0.00 | 0.00 | 0.00 | 62 | 1010.6 |
| 20260505014534 | 58 | 227 | 0.0 | 0.0 | 0.00 | 0.00 | 0.00 | 61 | 1010.9 |